Location: Praha
(50.0830°N, 14.4670°E)
Time: 03:50:13
(UTC+02:00)

ISS - Pass Details

Date: 12 May 2024
Orbit: 409 x 414 km, 51.6° (Epoch: 23 May)

Event Time Altitude Azimuth Distance (km) Brightness Sun altitude
Rises 00:23:33 0° 271° (W) 2,348 0.2 -21.3°
Reaches altitude 10° 00:25:39 10° 274° (W) 1,485 -0.8 -21.3°
Enters shadow 00:28:52 64° 345° (NNW) 461 -3.4 -21.4°
